Location: Unspecified
(58.9933°N, 5.6375°E)
Time: 06:52:03
(UTC+02:00)

Cosmos 2058 - Visible Passes

Search period start: 28 July 2016 00:00
Search period end: 07 August 2016 00:00
Orbit: 565 x 585 km, 82.5° (Epoch: 27 July)

Date Brightness Start Highest point End Pass type
(mag) Time Alt. Az. Time Alt. Az. Time Alt. Az.
28 Jul 6.0 03:44:05 10° NNE 03:46:35 15° NE 03:49:04 10° E visible
29 Jul 5.9 03:47:29 10° NNE 03:50:22 18° NE 03:53:16 10° E visible
30 Jul 5.8 03:50:56 10° N 03:54:10 21° ENE 03:57:23 10° ESE visible
31 Jul 5.5 03:54:26 10° N 03:57:56 24° ENE 04:01:24 10° ESE visible
01 Aug 5.1 03:57:57 10° N 04:01:41 28° ENE 04:05:23 10° ESE visible
02 Aug 4.8 04:01:31 10° N 04:05:25 34° ENE 04:09:17 10° SE visible
03 Aug 6.4 02:30:28 10° NE 02:30:56 10° NE 02:31:24 10° NE visible
03 Aug 4.4 04:05:04 10° N 04:09:07 41° ENE 04:13:08 10° SE visible
04 Aug 6.0 02:33:08 10° NNE 02:34:47 12° NE 02:36:24 10° ENE visible
04 Aug 3.9 04:08:40 10° N 04:12:49 50° ENE 04:16:56 10° SSE visible
05 Aug 5.9 02:36:21 10° NNE 02:38:36 14° NE 02:40:50 10° E visible
05 Aug 3.5 04:12:16 10° N 04:16:29 62° ENE 04:20:41 10° SSE visible
06 Aug 5.7 02:39:42 10° NNE 02:42:24 16° NE 02:45:06 10° E visible
06 Aug 3.2 04:15:53 10° NNW 04:20:09 76° ENE 04:24:23 10° SSE visible
